Regional Weather Roundup
Issued by NWS

Home | Current Version | Previous Version | Graphics & Text | Print | Product List | Glossary On
Versions: 1 2 3 4 5 6 7 8 9 10 11 12 13 14 15 16 17 18 19 20 21 22 23 24 25 26 27 28 29 30 31 32 33 34 35 36 37 38 39 40 41 42 43 44 45 46 47 48 49 50
000
ASUS43 KDTX 132310
RWRMI
MICHIGAN HOURLY REGIONAL WEATHER ROUNDUP
NATIONAL WEATHER SERVICE DETROIT/PONTIAC MI
700 PM EDT SUN JUL 13 2014

NOTE: "FAIR" INDICATES FEW OR NO CLOUDS BELOW 12,000 FEET WITH NO
SIGNIFICANT WEATHER AND/OR OBSTRUCTION TO VISIBILITY.

MIZ047>049-052>055-059>063-066>070-074>076-081>083-140000-
SOUTHEAST LOWER MICHIGAN

CITY           SKY/WX    TMP DP  RH WIND       PRES   REMARKS
ADRIAN         MOSUNNY   81  63  54 W7        29.89S
ALMA           MOSUNNY   78  60  54 SW10G18   29.86S
ANN ARBOR      SUNNY     80  57  45 W12       29.87S
BAD AXE        PTSUNNY   77  60  55 W13G18    29.84S
DETROIT CITY   SUNNY     86  54  33 W12       29.85R
DETROIT        MOSUNNY   83  59  44 W12       29.86S
FLINT          SUNNY     80  59  48 W13       29.86S
GROSSE ILE     MOSUNNY   82  64  54 W8        29.85R
HILLSDALE      SUNNY     80  60  51 W7        29.91S
HOWELL         SUNNY     78  56  46 W7        29.87S

CITY           SKY/WX    TMP DP  RH WIND       PRES   REMARKS
JACKSON        SUNNY     79  56  45 W8        29.89S
LAMBERTVILLE   MOSUNNY   82  61  47 W9        29.89R
LANSING        SUNNY     78  60  53 W10       29.88S
LAPEER         NOT AVBL
MASON          SUNNY     78  60  52 W8        29.88S
MONROE         PTSUNNY   82  63  51 W7        29.86R
MT. CLEMENS    MOSUNNY   82  60  47 W9        29.83R
PONTIAC        MOSUNNY   79  57  46 W12       29.86S
PORT HOPE        N/A     77  60  55 W6        29.81S
PORT HURON     SUNNY     79  63  57 NW3       29.84S
TRI CITIES     MOSUNNY   78  62  57 SW14      29.84F
YPSILANTI      SUNNY     86  57  37 W15       29.87R
$$
MIZ043>046-050>051-056>058-064>065-071>073-077>080-140000-
SOUTHWEST LOWER MICHIGAN

CITY           SKY/WX    TMP DP  RH WIND       PRES   REMARKS
BATTLE CREEK   SUNNY     80  60  50 NW8       29.90S
BENTON HARBOR  SUNNY     79  60  52 SW9       29.88F
BIG RAPIDS     CLOUDY    71  65  80 W7        29.86S
COLDWATER      SUNNY     79  60  50 W5        29.90S
HOLLAND        MOSUNNY   79  61  53 SW9       29.88F
GRAND RAPIDS   MOSUNNY   79  62  56 W13       29.88S
KALAMAZOO      SUNNY     80  60  50 W10       29.89F
MARSHALL       SUNNY     78  58  49 W9        29.89S
MUSKEGON       PTSUNNY   73  64  73 SW12      29.88S
$$
MIZ016>042-140000-
NORTHERN LOWER MICHIGAN

CITY           SKY/WX    TMP DP  RH WIND       PRES   REMARKS
ALPENA         SUNNY     73  49  42 NW8       29.84R
BEAVER ISLAND  SUNNY     70  51  50 SW5       29.85S
BELLAIRE       SUNNY     71  48  43 NW7       29.85S
CADILLAC       SUNNY     73  53  48 W9        29.87R
CHARLEVOIX     SUNNY     69  51  51 N5        29.88F
FRANKFORT      CLEAR     70  59  67 W5        29.86S
GAYLORD        MOSUNNY   68  50  52 VRB6      29.87S
GRAYLING       SUNNY     73  54  50 NW13      29.87S
HARBOR SPRINGS SUNNY     67  55  64 SW5       29.84S
HOUGHTON LAKE  MOSUNNY   75  54  47 NW13      29.86R
MANISTEE       SUNNY     72  57  60 NW7       29.87S
OSCODA         SUNNY     79  51  37 W8        29.82R
PELLSTON       SUNNY     70  45  40 W8        29.86S
TRAVERSE CITY  MOSUNNY   70  53  54 NE8       29.84S
$$
MIZ007>008-015-140000-
EASTERN UPPER MICHIGAN

CITY           SKY/WX    TMP DP  RH WIND       PRES   REMARKS
KINROSS        SUNNY     66  45  45 NW16      29.83S
MACKINAC ISLAN SUNNY     68  45  42 NW8       29.83S
NEWBERRY       SUNNY     67  45  45 MISG      29.83S
S. S. MARIE    SUNNY     65  46  50 NW8       29.83F
$$
MIZ004>006-011>014-085-140000-
CENTRAL UPPER MICHIGAN

CITY           SKY/WX    TMP DP  RH WIND       PRES   REMARKS
MANISTIQUE     MOSUNNY   65  51  59 S5        29.83S
ESCANABA       CLOUDY    72  45  37 NW6       29.83S
MENOMINEE      SUNNY     75  43  31 NW7       29.84S
SAWYER-GWINN   MOSUNNY   72  45  37 NW8       29.84S
$$
MIZ001>003-009>011-084-140000-
WESTERN UPPER MICHIGAN

CITY           SKY/WX    TMP DP  RH WIND       PRES   REMARKS
IRON MOUNTAIN  MOSUNNY   72  43  35 W12       29.84S
HOUGHTON       MOSUNNY   67  45  45 W20G26    29.80F
COPPER HARBOR    N/A     68  46  45 N14G28    29.78S
IRONWOOD       PTSUNNY  N/A N/A N/A W12G17    29.81S
$$

ABBREVIATIONS USED IN REMARKS
   TC - TEMPERATURE IN CELSIUS
  WCI - WIND CHILL INDEX
   HX - HEAT INDEX
  VSB - VISIBILITY




USA.gov is the U.S. government's official web portal to all federal, state and local government web resources and services.